Grand Junction, CO

8:51 PM MST on November 19, 2019 (GMT -0700)
Walker

Weather History for KGJT - September, 2019

Change the Weather History Date:

Wednesday, September 4, 2019

  Actual Average Record
Temperature  
Mean Temperature 83 °F 71 °F  
Max Temperature 97 °F 85 °F 100 °F (1995)
Min Temperature 68 °F 57 °F 42 °F (1961)
Degree Days  
Heating Degree Days 0 0  
Month to date heating degree days 0 0  
Since 1 July heating degree days 0 3  
Cooling Degree Days 18 6  
Month to date cooling degree days 59 26  
Year to date cooling degree days 1180 1045  
Growing Degree Days 34 (Base 50)    
Moisture  
Dew Point 40 °F    
Average Humidity 24    
Maximum Humidity 31    
Minimum Humidity 16    
Precipitation  
Precipitation T in 0.04 in 0.66 in (2004)
Month to date precipitation T 0.15  
Year to date precipitation 6.86 6.00  
Snow  
Snow 0.00 in 0.00 in 0.00 in (2018)
Month to date snowfall 0.0 0.0  
Since 1 July snowfall 0.0 0.0  
Since 1 September snowfall 0.0 0.0  
Snow Depth 0.00 in    
Sea Level Pressure  
Sea Level Pressure 29.90 in    
Wind  
Wind Speed 9 mph (SE)    
Max Wind Speed 23 mph    
Max Gust Speed 29 mph    
Visibility 10 miles    
Events Rain    
T = Trace of Precipitation, MM = Missing Value Source: NWS Daily Summary

Daily Weather History Graph

Daily Weather History Graph

Search for Another Location

Airport or City:

Astronomy

Sep. 04, 2019 Rise Set
Actual Time 6:45 AM MDT 7:40 PM MDT
Civil Twilight 6:18 AM MDT 8:07 PM MDT
Nautical Twilight 5:45 AM MDT 8:39 PM MDT
Astronomical Twilight 5:12 AM MDT 9:13 PM MDT
Moon 12:47 PM MDT (9/4) 11:19 PM MDT (9/4)
Length of Visible Light 13h 49m
Length of Day
12h 54m
Waxing Crescent, 35% of the Moon is Illuminated
Sep 4
Waxing Crescent
Sep 5
First Quarter
Sep 13
Full
Sep 21
Last Quarter
Sep 28
New

Hourly Weather History & Observations

Time (MDT) Temp. Dew Point Humidity Pressure Visibility Wind Dir Wind Speed Gust Speed Precip Events Conditions
12:53 AM 77.0 °F 28.9 °F 17% 29.85 in 10.0 mi NE 4.6 mph - N/A   Clear
1:53 AM 75.0 °F 35.1 °F 23% 29.85 in 10.0 mi East 4.6 mph - N/A   Clear
2:53 AM 71.1 °F 33.1 °F 25% 29.87 in 10.0 mi NE 6.9 mph - N/A   Clear
3:53 AM 75.0 °F 30.0 °F 19% 29.86 in 10.0 mi SSE 5.8 mph - N/A   Clear
4:53 AM 77.0 °F 33.1 °F 20% 29.87 in 10.0 mi East 12.7 mph - N/A   Clear
5:53 AM 77.0 °F 36.0 °F 23% 29.88 in 10.0 mi East 12.7 mph - N/A   Scattered Clouds
6:53 AM 73.9 °F 34.0 °F 23% 29.92 in 10.0 mi East 11.5 mph - N/A   Scattered Clouds
7:53 AM 73.0 °F 34.0 °F 24% 29.97 in 10.0 mi South 3.5 mph - N/A   Clear
8:53 AM 73.0 °F 41.0 °F 31% 30.00 in 10.0 mi Calm Calm - N/A   Clear
9:53 AM 75.9 °F 41.0 °F 29% 29.99 in 10.0 mi South 4.6 mph - N/A   Scattered Clouds
10:53 AM 81.0 °F 42.1 °F 25% 29.97 in 10.0 mi ESE 11.5 mph - 0.00 in Rain Light Rain
11:53 AM 82.9 °F 43.0 °F 24% 29.96 in 10.0 mi ESE 6.9 mph 21.9 mph 0.00 in   Partly Cloudy
12:53 PM 90.0 °F 43.0 °F 19% 29.93 in 10.0 mi ESE 10.4 mph - N/A   Clear
1:53 PM 91.0 °F 42.1 °F 18% 29.92 in 10.0 mi SE 8.1 mph - N/A   Clear
2:53 PM 93.0 °F 41.0 °F 16% 29.89 in 10.0 mi ESE 13.8 mph - N/A   Clear
3:53 PM 93.9 °F 41.0 °F 16% 29.85 in 10.0 mi ESE 6.9 mph - N/A   Clear
4:53 PM 95.0 °F 42.1 °F 16% 29.83 in 10.0 mi South 5.8 mph - N/A   Clear
5:53 PM 93.0 °F 42.1 °F 17% 29.84 in 10.0 mi SSE 6.9 mph - N/A   Clear
6:53 PM 91.0 °F 44.1 °F 20% 29.86 in 10.0 mi SSE 11.5 mph - N/A   Clear
7:53 PM 87.1 °F 43.0 °F 21% 29.89 in 10.0 mi SSE 6.9 mph - N/A   Clear
8:53 PM 84.9 °F 45.0 °F 25% 29.93 in 10.0 mi ESE 18.4 mph 27.6 mph N/A   Clear
9:53 PM 82.0 °F 44.1 °F 26% 29.94 in 10.0 mi SE 11.5 mph - N/A   Clear
10:53 PM 80.1 °F 44.1 °F 28% 29.94 in 10.0 mi SSE 13.8 mph 17.3 mph N/A   Clear
11:53 PM 80.1 °F 45.0 °F 29% 29.94 in 10.0 mi SE 6.9 mph - N/A   Clear